User: anonymous   Login
Location: Unspecified
(0.0000°N, 0.0000°E)
Time: 10:38:19
(UTC+00:00)
Language:

A-11 Canister half - Orbit

View from above orbital plane
View from above orbital plane
View from above satellite
View from above satellite

Ground track
Ground track

The orbit data is extracted from the following two-line orbital elements,

1    53U 60009E   17087.69736902 -.00000084 +00000-0 +00000-0 0  9991
2    53 047.2762 287.7467 0097455 203.3547 156.2797 12.17196361525234
Epoch (UTC): 28 March 2017 16:44:12
Eccentricity: 0.0097455
inclination: 47.2762°
perigee height: 1527 km
apogee height: 1682 km
right ascension of ascending node: 287.7467°
argument of perigee: 203.3547°
revolutions per day: 12.17196361
mean anomaly at epoch: 156.2797°
orbit number at epoch: 52523

The dashed part of the orbit path shows where the satellite is in the earth's shadow,  

DLR